Tracking 19795 objects as of 17-Jul-2019
HD Live streaming from Space Station
objects crossing your sky now

FENGYUN 1C DEB

Track FENGYUN 1C DEB now!
10-day predictions


NORAD ID: 30680
Int'l Code: 1999-025AQN
Perigee: 827.7 km
Apogee: 1,397.4 km
Inclination: 99.5 °
Period: 107.4 minutes
Semi major axis: 7483 km
RCS: 0.0144 m2 (small)
Launch date: May 10, 1999
Source: People's Republic of China (PRC)
Launch site: Taiyaun Space Center, China (TSC)

Note: This is SATELLITE DEBRIS
aabbcc
Your satellite tracking list
Your tracking list is empty




NASA's NSSDC Master Catalog

Two Line Element Set (TLE):
1 30680U 99025AQN 19197.25051192 +.00001314 +00000-0 +16015-2 0  9998
2 30680 099.5312 315.2123 0380654 214.7908 142.7791 13.41035321607616
Source of the keplerian elements: AFSPC